Peter Trimmel

Olheiro-Chefe - Grodig
5 Dez 2027
Domingo
Processo

Personalidade

Adaptabilidade (1) Ambição (11) Controvérsia (17) Lealdade (15) Pressão (4) Profissionalismo (6) Espírito Esportivo (16) Temperamento (4)

Perfil

Estilo de Treinamento Democrático
Licença Continental A
Determinação 9
Gestão de Pessoas 4
Motivação 6
Disciplina 3
Satisfação no Trabalho
100%
Fadiga
0%
Função Olheiro-Chefe
Salário 53.1K p/s
Contrato 14.03.2028

Desempenho

Comportamento Bom
Eficácia do Treinamento
25%
Desenvolvimento do Jogador
40%
Prevenção de Lesões
30%
Implementação Tática
30%

Eventos Recentes

Participou de uma reunião de recrutamento agora
Recomendou um alvo de transferência agora
Participou de uma reunião de recrutamento agora
Avaliou um jogador agora
Avaliou um jogador 7d atrás
Avaliou um jogador 7d atrás
Avaliou um jogador 7d atrás
Avaliou um jogador 7d atrás

Monitorando agora

299
Jogador Clube Status Habilidade Confiança Observado Última observação Último voto
Patrick Schmidt Tarxien Rainbows Ativo 112 / 106 40% 7 02.12.2027 -
Tiziano Dornell Almagro Ativo 120 / 124 40% 3 02.12.2027 -
Thiago Calone All Boys Ativo 122 / 115 40% 3 02.12.2027 -
Ignacio Lago Colón Ativo 113 / 100 40% 5 01.12.2027 -
Enzo Cabrera Danubio Ativo 107 / 115 40% 2 01.12.2027 -
Agustín Gallo Tristán Suárez Ativo 122 / 108 40% 2 30.11.2027 -
Cristian Barros Cerro Ativo 101 / 129 40% 3 30.11.2027 -
Alejo Cruz Juventud Ativo 118 / 107 40% 6 30.11.2027 -
Franco Fagúndez Estudiantes Ativo 123 / 116 40% 4 27.11.2027 -
Delvin Alfonzo Deportivo Tachira Ativo 120 / 129 40% 2 27.11.2027 -
Marco Miori Alvarado Ativo 107 / 131 40% 3 27.11.2027 -
Santiago Sala Güemes Ativo 110 / 119 40% 1 27.11.2027 -
Jhonatan Candia Barracas Central Ativo 125 / 120 40% 1 27.11.2027 -
Lucas Ríos Atlanta Ativo 117 / 107 40% 7 26.11.2027 -
Facundo Altamira Godoy Cruz Ativo 117 / 116 40% 2 26.11.2027 -
Luciano Inverso Rentistas Ativo 117 / 102 40% 1 26.11.2027 -
Esteban Obregón Montevideo City Torque Ativo 112 / 126 40% 5 25.11.2027 -
Juan Rocca Gimnasia y Tiro Ativo 111 / 109 40% 5 25.11.2027 -
Facundo Labandeira Wanderers Ativo 118 / 105 40% 1 25.11.2027 -
Maximiliano Meléndez Chacarita Juniors Ativo 110 / 136 40% 2 24.11.2027 -
Samson Olasupo Remo Stars Ativo 105 / 81 40% 2 24.11.2027 -
Juan Pablo Barinaga Patronato Ativo 123 / 107 40% 1 24.11.2027 -
Enzo Martínez Almagro Ativo 116 / 94 40% 2 23.11.2027 -
Samuel Anakwe Remo Stars Ativo 94 / 99 40% 3 22.11.2027 -
James Emo Rangers International Ativo 91 / 85 40% 1 22.11.2027 -
Manuel Duarte Barracas Central Ativo 129 / 98 40% 1 21.11.2027 -
Emerson Batalla Atletico Bucaramanga Ativo 121 / 116 40% 1 21.11.2027 -
Adama Goïta Remo Stars Ativo 100 / 105 40% 5 19.11.2027 -
Abubakar Garba Nasarawa United Ativo 89 / 111 40% 6 19.11.2027 -
Lautaro Disanto Defensores Unidos Ativo 122 / 116 40% 2 19.11.2027 -
Juan Esteban Ávalo Aguilas Doradas Ativo 120 / 101 40% 1 19.11.2027 -
Matías Viguet Maipú Ativo 108 / 128 40% 1 19.11.2027 -
Adeshina Gata Kwara United Ativo 85 / 74 40% 3 18.11.2027 -
Andres Lioi Chaco For Ever Ativo 114 / 126 40% 2 18.11.2027 -
Ismail Sarki Niger Tornadoes Ativo 89 / 97 40% 4 15.11.2027 -
Antony Alonso Deportivo Riestra Ativo 133 / 100 40% 5 15.11.2027 -
Jonathan Cañete Portuguesa Ativo 105 / 108 40% 2 15.11.2027 -
Erik Bodencer Central Norte Ativo 105 / 124 40% 3 14.11.2027 -
Gianluca Pugliese Güemes Ativo 108 / 106 40% 5 14.11.2027 -
Sunday Megwo Abia Warriors Ativo 91 / 111 40% 2 13.11.2027 -
Umar Ada Nasarawa United Ativo 97 / 83 40% 2 13.11.2027 -
Josephat Lopaga Kakamega Homeboyz Ativo 95 / 104 40% 4 12.11.2027 -
Alexander Díaz Deportivo Riestra Ativo 133 / 109 40% 6 11.11.2027 -
Maren Kefas Plateau United Ativo 83 / 103 40% 3 11.11.2027 -
Maclyn Biokpo Jenewari Rivers United Ativo 116 / 114 40% 5 09.11.2027 -
Francisco Bonfiglio Boston River Ativo 108 / 94 40% 2 08.11.2027 -
Facundo Pons San Martín Ativo 115 / 112 40% 2 08.11.2027 -
Jeriel De Santis Caracas Ativo 117 / 105 40% 2 07.11.2027 -
Victor Mbaoma Tusker Ativo 92 / 115 40% 1 07.11.2027 -
Agustín Módica Gimnasia y Esgrima Ativo 128 / 106 40% 1 06.11.2027 -
Nicolás Heiz Maipú Ativo 107 / 86 40% 5 04.11.2027 -
Esteban da Silva Racing Ativo 104 / 97 40% 1 04.11.2027 -
Carlos Gugenheim Almirante Brown Ativo 114 / 98 40% 2 02.11.2027 -
Gonzalo Flores Almirante Brown Ativo 117 / 130 40% 2 02.11.2027 -
Richard Celis Zamora Ativo 102 / 114 40% 1 02.11.2027 -
Luca Martínez Dupuy Godoy Cruz Ativo 115 / 130 40% 1 02.11.2027 -
Mateo Trejos Jaguares Ativo 115 / 90 40% 1 02.11.2027 -
Miguel Rodríguez Caracas Ativo 130 / 144 40% 4 31.10.2027 -
Lius Dadong Kano Pillars Ativo 96 / 69 40% 4 31.10.2027 -
Federico Pérez Agropecuario Argentino Ativo 115 / 124 40% 1 31.10.2027 -
Brian Orosco Godoy Cruz Ativo 108 / 126 40% 1 31.10.2027 -
Adalberto Peñaranda Deportivo Tachira Ativo 117 / 94 40% 2 30.10.2027 -
Lucas Agazzi Defensor Sporting Ativo 127 / 128 40% 1 29.10.2027 -
Alfred Emoni Bandari Ativo 80 / 92 40% 1 29.10.2027 -
Joseph Atule Barau Ativo 86 / 92 40% 2 27.10.2027 -
Juan Salas Patronato Ativo 122 / 105 40% 1 24.10.2027 -
Richard Figueroa Deportivo Lara Ativo 110 / 97 40% 2 22.10.2027 -
Agustín Alaniz Juventud Negociando 120 / 129 40% 4 20.10.2027 -
Rodrigo Rivero Wanderers Ativo 115 / 121 40% 2 20.10.2027 -
Juan José Vásquez Union Magdalena Ativo 93 / 103 40% 1 20.10.2027 -
David Veliz Güemes Ativo 118 / 103 40% 1 20.10.2027 -
Alejandro Melo Temperley Ativo 110 / 104 40% 3 17.10.2027 -
Matías Samaniego Talleres Ativo 90 / 78 40% 1 17.10.2027 -
Okardi Inikurogha Bayelsa United Ativo 89 / 90 40% 2 16.10.2027 -
Carlos Cantillo Jaguares Ativo 117 / 127 40% 1 16.10.2027 -
Antonio Galeano Remo Stars Ativo 122 / 141 40% 1 15.10.2027 -
Brian Cordoba Cortulua Ativo 119 / 112 40% 1 15.10.2027 -
Johan Campaña Patriotas Ativo 110 / 100 40% 1 11.10.2027 -
Brian Farioli Estudiantes Ativo 120 / 104 40% 1 11.10.2027 -
Chisom Orji Warri Wolves Ativo 87 / 95 40% 2 07.10.2027 -
Gabriel Obredor Deportivo Riestra Ativo 128 / 106 40% 1 05.10.2027 -
Chukwuemeka Obioma Abia Warriors Ativo 89 / 92 40% 1 02.10.2027 -
Ivo Costantino Danubio Ativo 112 / 130 40% 3 01.10.2027 -
Samuel Ssenyonjo AFC Leopards Ativo 86 / 85 40% 1 01.10.2027 -
Germán Cervera Alvarado Ativo 103 / 117 40% 1 30.09.2027 -
Nicolás Servetto Madryn Ativo 123 / 131 40% 2 29.09.2027 -
Igbunu Evwierhurhoma Warri Wolves Ativo 95 / 77 40% 2 29.09.2027 -
Ezekiel Edidiong Enyimba Ativo 79 / 94 40% 3 26.09.2027 -
Santiago Apa All Boys Ativo 114 / 92 40% 1 26.09.2027 -
Marcos Echeverría Temperley Ativo 108 / 91 40% 1 23.09.2027 -
Chinedu Onyinjekwu Bayelsa United Ativo 104 / 78 40% 3 22.09.2027 -
Nicolás Contín Gimnasia y Tiro Ativo 123 / 125 40% 1 22.09.2027 -
Augustine Nwaorisa Enyimba Ativo 92 / 96 40% 2 21.09.2027 -
Lisandro Cabrera Maipú Ativo 103 / 116 40% 2 19.09.2027 -
Máximo Alonso Central Espanol Ativo 110 / 124 40% 1 16.09.2027 -
Samson Obi Katsina United Ativo 95 / 80 40% 1 14.09.2027 -
Facundo de León Progreso Ativo 115 / 93 40% 1 13.09.2027 -
Nicolás Sosa Racing Ativo 109 / 99 40% 2 12.09.2027 -
Ronaldo Peña Deportivo Lara Ativo 116 / 82 40% 1 12.09.2027 -
Nahuel Soria Oriental Ativo 101 / 121 40% 1 09.09.2027 -
Chidera Oparaocha Warri Wolves Ativo 92 / 72 40% 1 08.09.2027 -
Simone Canestrelli Pisa Ativo 137 / 133 40% 1 16.08.2027 -
Freddi Greco Monopoli Ativo 108 / 104 40% 1 16.08.2027 -
Matteo Lovato Padova Ativo 135 / 124 40% 1 16.08.2027 -
Matteo Rover Reggiana Ativo 131 / 130 40% 2 10.08.2027 -
Alejandro Cantero Huesca Negociando 126 / 112 40% 1 10.08.2027 -
Marcus Browne AFC Wimbledon Ativo 115 / 105 40% 2 02.08.2027 -
Christian Saydee Wigan Athletic Ativo 110 / 118 40% 2 02.08.2027 -
Dale Taylor Blackpool Ativo 119 / 107 40% 3 02.08.2027 -
Josh Koroma Leyton Orient Ativo 111 / 106 40% 3 26.07.2027 -
Rushian Hepburn-Murphy Milton Keynes Dons Negociando 108 / 89 40% 1 26.07.2027 -
Rui Costa Port Vale Ativo 108 / 105 40% 2 20.07.2027 -
Iwan Morgan Grimsby Town Ativo 122 / 122 40% 4 20.07.2027 -
Mohamed Touré Norwich City Ativo 118 / 122 40% 1 20.07.2027 -
Kyle Joseph Middlesbrough Ativo 126 / 118 40% 6 14.07.2027 -
Will Evans Mansfield Town Ativo 105 / 103 40% 3 14.07.2027 -
Kimarni Smith Newport County Negociando 95 / 111 40% 1 14.07.2027 -
Calum Kavanagh Oldham Athletic Negociando 104 / 110 40% 2 05.07.2027 -
Ronan Hale Gillingham Ativo 119 / 119 40% 8 28.06.2027 -
Bartosz Mazurek Red Bull Salzburg Perdido 91 / 88 69% 1 28.06.2027 Aprovar
Daniel Udoh Salford City Ativo 101 / 95 40% 1 28.06.2027 -
Mathias Jørgensen Blackburn Rovers Ativo 118 / 122 40% 1 14.06.2027 -
Patson Daka Leicester City Ativo 126 / 123 40% 1 14.06.2027 -
Fabrizio Cavegn Bristol Rovers Ativo 106 / 104 40% 6 30.05.2027 -
Bradley Fink Wycombe Wanderers Ativo 113 / 111 40% 6 29.05.2027 -
Alassana Jatta Notts County Ativo 113 / 116 40% 4 28.05.2027 -
Sam Nombe Milton Keynes Dons Ativo 112 / 101 40% 5 28.05.2027 -
Niall Ennis Blackpool Ativo 116 / 105 40% 4 28.05.2027 -
Hakeeb Adelakun Doncaster Rovers Ativo 97 / 91 40% 3 27.05.2027 -
Josh Honohan Lincoln City Ativo 112 / 113 40% 3 27.05.2027 -
Charlie Goode Bristol Rovers Ativo 114 / 101 40% 1 27.05.2027 -
Brian De Keersmaecker Oxford United Ativo 120 / 121 40% 1 27.05.2027 -
John Okoye Ebuka Ittihad Ativo 126 / 95 40% 7 26.05.2027 -
Bali Mumba Huddersfield Town Ativo 115 / 120 40% 3 26.05.2027 -
Aidomo Emakhu Oxford United Ativo 122 / 121 40% 2 26.05.2027 -
Luca Connell Barnsley Ativo 109 / 110 40% 1 26.05.2027 -
Juergen Elitím Blackpool Ativo 121 / 121 40% 1 24.05.2027 -
Junior Quitirna Wycombe Wanderers Ativo 114 / 116 40% 1 24.05.2027 -
Tom Hamer Lincoln City Ativo 119 / 99 40% 1 23.05.2027 -
Kelly Saravanan Salford City Ativo 108 / 103 40% 4 22.05.2027 -
Malik Mothersille Stockport County Ativo 122 / 120 40% 5 21.05.2027 -
Miro Muheim Hamburger SV Ativo 132 / 142 40% 2 21.05.2027 -
Aaron Collins Milton Keynes Dons Ativo 121 / 121 40% 5 21.05.2027 -
Mattia Bortolussi Padova Ativo 127 / 121 40% 3 19.05.2027 -
Samuel Tetteh Ashanti Gold Ativo 103 / 103 40% 3 19.05.2027 -
Bobby Pointon Salford City Ativo 114 / 102 40% 1 19.05.2027 -
Paddy Lane Reading Ativo 111 / 116 40% 1 19.05.2027 -
Jaze Kabia Grimsby Town Ativo 91 / 103 40% 5 18.05.2027 -
Atsuki Ito Bolton Wanderers Ativo 122 / 128 40% 2 18.05.2027 -
Aaron Drinan Swindon Town Ativo 109 / 102 40% 5 14.05.2027 -
Armstrong Oko-Flex Levski Ativo 124 / 134 40% 6 13.05.2027 -
Daniel Kyerewaa Reading Ativo 111 / 114 40% 5 13.05.2027 -
Rúben Rodrigues Bolton Wanderers Ativo 118 / 108 40% 2 13.05.2027 -
Reuell Walters Luton Town Ativo 113 / 127 40% 1 12.05.2027 -
Fraser Murray Wigan Athletic Ativo 114 / 118 40% 2 11.05.2027 -
Josh Dacres-Cogley Stockport County Ativo 102 / 109 40% 1 11.05.2027 -
Stanley Mills Oxford United Ativo 128 / 123 40% 2 10.05.2027 -
Harry Clarke Preston Ativo 125 / 140 40% 2 10.05.2027 -
Josh King Charlton Athletic Ativo 133 / 155 40% 1 10.05.2027 -
Harry Pickering Blackburn Rovers Ativo 122 / 127 40% 2 07.05.2027 -
Adrià Altimira Deportivo La Coruña Ativo 133 / 128 40% 1 07.05.2027 -
Radinio Balker Huddersfield Town Ativo 115 / 126 40% 2 06.05.2027 -
Adrián Lapeña Ceuta Ativo 116 / 119 40% 1 06.05.2027 -
Lorenzo González Neftekhimik Ativo 86 / 107 40% 4 05.05.2027 -
Beryly Lubala Barrow AFC Ativo 98 / 108 40% 5 03.05.2027 -
Anthony Scully Shrewsbury Town Ativo 102 / 83 40% 3 03.05.2027 -
Marius Wolf FC Augsburg Ativo 134 / 119 40% 1 03.05.2027 -
Julio Alonso Huesca Ativo 115 / 108 40% 1 02.05.2027 -
Ryan Johnson AFC Wimbledon Ativo 109 / 111 40% 2 01.05.2027 -
Adam Senior Barnet Ativo 107 / 102 40% 1 01.05.2027 -
Eoin Toal Bolton Wanderers Ativo 121 / 108 40% 3 30.04.2027 -
Christ Makosso Luton Town Ativo 121 / 129 40% 1 30.04.2027 -
Dan Casey Wycombe Wanderers Ativo 118 / 118 40% 1 30.04.2027 -
Marco Tumminello Benevento Ativo 119 / 119 40% 1 27.04.2027 -
Kyle Wootton Stockport County Ativo 123 / 130 40% 4 26.04.2027 -
Thierry Rendall Correia Venezia Ativo 139 / 138 40% 1 26.04.2027 -
Ryan Graydon Salford City Ativo 107 / 95 40% 1 25.04.2027 -
Harry Leonard Peterborough United Ativo 112 / 116 40% 1 25.04.2027 -
Connor Ogilvie Blackpool Ativo 117 / 111 40% 1 25.04.2027 -
Jayden Sweeney Grimsby Town Ativo 108 / 110 40% 1 25.04.2027 -
Sonny Carey Charlton Athletic Ativo 117 / 121 40% 1 24.04.2027 -
Martin Sekulić Ural Ativo 113 / 97 40% 7 22.04.2027 -
Marcus Forss Bristol Rovers Ativo 120 / 111 40% 2 22.04.2027 -
John Yeboah Venezia Ativo 120 / 123 40% 1 22.04.2027 -
Camillo Tavernelli Arezzo Ativo 116 / 121 40% 3 21.04.2027 -
Charles Vernam Grimsby Town Ativo 101 / 99 40% 1 21.04.2027 -
Jordan Thomas Cheltenham Town Ativo 85 / 79 40% 1 19.04.2027 -
Malcolm Ebiowei Bristol Rovers Ativo 106 / 102 40% 1 18.04.2027 -
Julian Niehues Heidenheim Ativo 126 / 111 40% 1 17.04.2027 -
Kane Wilson Milton Keynes Dons Ativo 119 / 110 40% 1 16.04.2027 -
Lewis Wing Reading Ativo 114 / 117 40% 1 15.04.2027 -
Matthias Braunöder Carrarese Ativo 123 / 120 40% 1 15.04.2027 -
Thomas Amang Cotonsport Garoua Ativo 111 / 103 40% 1 15.04.2027 -
Sunusi Ibrahim Cotonsport Garoua Ativo 113 / 111 40% 5 14.04.2027 -
Patrick Addo Great Olympics Ativo 103 / 99 40% 4 13.04.2027 -
Pietro Cianci Arezzo Ativo 101 / 104 40% 1 12.04.2027 -
Liam Thompson Mansfield Town Ativo 110 / 130 40% 1 12.04.2027 -
Tom Atcheson Crewe Alexandra Ativo 115 / 121 40% 1 12.04.2027 -
Lorenzo Di Stefano Torres Ativo 108 / 111 40% 1 10.04.2027 -
Hamza Issah Hearts of Oak Ativo 100 / 96 40% 1 10.04.2027 -
Andrei Coubiş Lincoln City Ativo 118 / 129 40% 1 09.04.2027 -
Matty Stevens AFC Wimbledon Ativo 98 / 115 40% 5 07.04.2027 -
Lee Bonis Chesterfield Ativo 104 / 89 40% 2 05.04.2027 -
Simone Mazzocchi Cosenza Ativo 120 / 117 40% 1 03.04.2027 -
Filip Stojilković Pisa Ativo 129 / 125 40% 1 27.03.2027 -
Harry Cornick AFC Wimbledon Ativo 102 / 112 40% 1 26.03.2027 -
Khaled Al-Nabris Ismaily Ativo 98 / 96 40% 1 22.03.2027 -
Harry Smith Ativo 98 / 102 40% 2 20.03.2027 -
Dean Mkhize Ajax Cape Town Ativo 133 / 112 40% 7 18.03.2027 -
Oleksii Hutsuliak Polissia Ativo 128 / 138 40% 1 15.03.2027 -
German Onugkha Rodina Ativo 115 / 115 40% 1 15.03.2027 -
Luca Moro Padova Ativo 115 / 111 40% 1 07.03.2027 -
Thamsanqa Dolly Free State Stars Ativo 100 / 130 40% 2 06.03.2027 -
Moses Twum Haras El Hodoud Ativo 91 / 82 40% 1 03.03.2027 -
Joel Fameyeh Puskas Akademia Ativo 104 / 105 40% 2 08.02.2027 -
Jerome Karelse Golden Arrows Ativo 111 / 101 40% 5 04.02.2027 -
Andreas Gruber DAC Dunajska Streda Ativo 109 / 99 40% 4 03.02.2027 -
Slobodan Tedić Akron Ativo 102 / 86 40% 1 02.02.2027 -
Owen Bailey Doncaster Rovers Ativo 116 / 98 40% 1 18.01.2027 -
Lewis Bate Stockport County Ativo 123 / 134 40% 1 18.01.2027 -
Filip Matijašević Red Bull Salzburg Ativo 92 / 88 69% 1 06.01.2027 Aprovar
Etiosa Ighodaro Kaizer Chiefs Ativo 113 / 91 40% 2 01.01.2027 -
Marko Raguž Admira Wacker Ativo 100 / 108 40% 3 31.12.2026 -
Pavel Meleshin Sochi Ativo 121 / 106 40% 2 31.12.2026 -
Johannes Eggestein Austria Wien Ativo 127 / 133 40% 2 31.12.2026 -
Manu Nieto Andorra Ativo 122 / 125 40% 5 30.12.2026 -
Vyacheslav Grulev Nizhniy Novgorod Ativo 116 / 99 40% 2 30.12.2026 -
Philip Elayo Azango Spartak Trnava Ativo 105 / 102 40% 2 29.12.2026 -
Evidence Makgopa Orlando Pirates Ativo 110 / 114 40% 4 26.12.2026 -
Mikhail Ignatov Sochi Ativo 115 / 98 40% 1 25.12.2026 -
Seidu Basit Ashanti Gold Negociando 89 / 109 40% 1 24.12.2026 -
Abdoulaye Kanté Mattersburg Ativo 100 / 94 40% 3 23.12.2026 -
Marcelo Allende Mamelodi Sundowns Ativo 141 / 145 40% 1 23.12.2026 -
Velemseni Ndwandwe Golden Arrows Ativo 105 / 114 40% 1 23.12.2026 -
Dominik Lindner Mattersburg Ativo 98 / 115 50% 6 / 1m 22.12.2026 -
Ante Roguljić Diosgyor Ativo 127 / 111 40% 1 22.12.2026 -
Franko Kovačević Honved Ativo 108 / 119 40% 2 20.12.2026 -
Haissem Hassan Bloemfontein Celtic Ativo 125 / 140 40% 2 19.12.2026 -
Cyriaque Irié Borussia Mönchengladbach Ativo 124 / 117 40% 1 19.12.2026 -
Yeangel Montero Naxxar Lions Ativo 106 / 103 40% 3 15.12.2026 -
Ammar Ramadan DAC Dunajska Streda Ativo 134 / 143 40% 3 15.12.2026 -
Sota Kitano Mainz 05 Ativo 115 / 130 40% 2 14.12.2026 -
Fabio Moreno Fell Mainz 05 Ativo 97 / 93 40% 4 13.12.2026 -
Giacomo Vrioni Wolfsberger AC Ativo 120 / 110 40% 3 13.12.2026 -
Franklin Sasere Birkirkara Ativo 91 / 101 40% 1 12.12.2026 -
Zsombor Gruber Bekescsaba Ativo 117 / 96 40% 1 10.12.2026 -
Claudy M'Buyi Rapid Wien Ativo 124 / 101 40% 3 07.12.2026 -
Matej Trusa DAC Dunajska Streda Ativo 127 / 102 40% 1 07.12.2026 Mais informações
Kenan Dervišagić Floriana Ativo 107 / 106 40% 1 06.12.2026 -
Danila Shilov Dinamo Stavropol Ativo 85 / 100 40% 1 06.12.2026 -
Bernard Sulemana Wa All Stars Ativo 82 / 114 40% 1 06.12.2026 -
Yanis Guermouche Admira Wacker Ativo 94 / 104 40% 2 05.12.2026 -
Berna CSKA 1948 Ativo 111 / 102 40% 2 29.11.2026 -
Bojan Radulović Huddersfield Town Ativo 120 / 103 40% 1 27.11.2026 -
Kyreece Lisbie Colchester United Ativo 105 / 123 40% 1 26.11.2026 -
Stephan Seiler Vaduz Ativo 107 / 92 40% 1 26.11.2026 -
Oto John Arab Contractors Ativo 96 / 103 40% 1 21.11.2026 -
Benjamin Böckle Altach Ativo 124 / 116 40% 2 19.11.2026 -
Rogério VfL Wolfsburg Ativo 127 / 129 40% 1 19.11.2026 -
Andreas Kalajdzic Mattersburg Ativo 114 / 115 40% 1 19.11.2026 -
Seedy Jatta Sturm Graz Ativo 128 / 120 40% 3 13.11.2026 -
Ousmane Diawara Altach Ativo 106 / 114 40% 3 12.11.2026 -
Nduduzo Sibiya Golden Arrows Ativo 117 / 91 40% 1 12.11.2026 -
Kilian Fischer VfL Wolfsburg Ativo 134 / 123 40% 1 10.11.2026 -
Elias Hoff Melkersen Stromsgodset Ativo 114 / 107 40% 1 05.11.2026 -
Erik Botheim Viking Ativo 126 / 118 40% 2 03.11.2026 -
Leandro Godoy CSKA Sofia Ativo 128 / 105 40% 2 03.11.2026 -
Relebohile Mofokeng Orlando Pirates Ativo 119 / 144 40% 2 03.11.2026 -
Petter Nosa Dahl Rapid Wien Ativo 114 / 113 40% 5 30.10.2026 -
Mykola Kukharevych Slovan Bratislava Ativo 113 / 98 40% 2 28.10.2026 -
Heinz Alaba Rapid Wien Ativo 126 / 125 40% 1 27.10.2026 -
Matthias Seidl Rapid Wien Ativo 123 / 125 40% 1 27.10.2026 -
Lucas Souto Defensa y Justicia Ativo 124 / 112 40% 1 26.10.2026 -
Max Svensson Penafiel Ativo 109 / 100 40% 1 25.10.2026 -
Boris Matić Wolfsberger AC Ativo 116 / 122 40% 1 22.10.2026 -
Dario Vizinger NK Maribor Ativo 122 / 132 40% 1 19.10.2026 -
Ádin Molnár MTK Budapest Ativo 113 / 127 40% 2 18.10.2026 -
Yanela Mbuthuma Orlando Pirates Ativo 115 / 95 40% 1 18.10.2026 -
Tobias Gulliksen Rapid Wien Ativo 120 / 130 40% 1 18.10.2026 -
Brayan León Mamelodi Sundowns Ativo 121 / 139 40% 1 15.10.2026 -
Ante Bajić SV Ried Ativo 107 / 124 40% 2 11.10.2026 -
Michael Wimmer Mattersburg Ativo 117 / 96 40% 2 07.10.2026 -
Marc Gutbub Thun Ativo 104 / 101 40% 1 07.10.2026 -
Ieltsin Camões Tromso Ativo 116 / 113 40% 1 05.10.2026 -
Indrit Tuci Olimpija Ljubljana Ativo 105 / 87 40% 1 05.10.2026 -
Marcelo Torres Gimnasia La Plata Ativo 114 / 127 40% 1 20.09.2026 -
Ibrahim Yahaya Barau Ativo 85 / 69 40% 1 20.09.2026 -
Andreas Helmersen Bodo/Glimt Ativo 125 / 122 40% 1 19.09.2026 -
Wandile Duba Maritzburg United Ativo 107 / 116 40% 1 15.09.2026 -
Hlompho Phiri SuperSport United Ativo 98 / 113 40% 1 11.09.2026 -
Kwadwo Duah Ludogorets Ativo 124 / 116 40% 1 10.09.2026 -
Sveinn Aron Guðjohnsen Vikingur Ativo 112 / 118 40% 1 08.09.2026 -
Yann Massombo Altach Ativo 109 / 99 40% 1 31.08.2026 -
Furkan Demir Rapid Wien Ativo 122 / 114 40% 1 12.08.2026 -
Karim Adeyemi Barcelona Ativo 156 / 158 40% 1 01.08.2026 -
Alexis Domínguez Chacarita Juniors Ativo 107 / 97 40% 1 01.08.2026 -
Justin Njinmah Werder Bremen Ativo 138 / 128 40% 1 01.08.2026 -
Gavin Bazunu Southampton Ativo 115 / 118 40% 1 01.08.2026 -
Adrián Alavés Ativo 119 / 132 40% 1 01.08.2026 -